{"data":{"norad_id":54755,"intl_designator":"2022-174A","name":"O3B MPOWER F1","alt_names":[],"object_type":"PAYLOAD","status":"ACTIVE","operator":null,"country":"O3B","launch_date":"2022-12-16","launch_site_code":"AFETR","launch_vehicle":null,"mission":null,"orbit_class":"UNKNOWN","rcs_meters":null,"size_class":null,"mass_kg":null,"dimensions":null,"purposes":["comms"],"wikipedia_slug":null,"has_3d_model":false,"image_url":null,"decayed_at":null,"tle_current":{"epoch":"2026-05-25T01:52:33.238272Z","epoch_age_seconds":71591,"freshness":"FRESH","line1":"1 54755U 22174A   26145.07816248 -.00000024  00000+0  00000+0 0  9991","line2":"2 54755   0.0554 344.3125 0006202  94.2786 141.2869  5.00117054 64206","mean_motion":5.00117054,"eccentricity":0.0006202,"inclination_deg":0.0554,"raan_deg":344.3125,"arg_perigee_deg":94.2786,"mean_anomaly_deg":141.2869,"bstar":0,"rev_number":6420,"period_min":287.93259267659,"perigee_km":8056.9021301292,"apogee_km":8074.8184643767,"semimajor_km":14443.997297253,"source":"CELESTRAK","updated_at":"2026-05-25T13:38:14.517752Z"}}}